COSMOS 2015

Satellite information

Favourite Embed

Satellite Type and Status

PAYLOADIN ORBIT

Key statistics

Satellite COSMOS 2015 at a glance.

Uptime

13256

Days in orbit

Revolutions

≈ 12.4

Per day

Orbit

LEO

Low Earth Orbit

Inclination

74.0

Latest

Satellite identification and parameters

Extended collection of information and parameters for COSMOS 2015.

Object identification

Identified? True

Debris? False

Object name: COSMOS 2015

International designator: 1989-025H

Object number (NORAD): 19909

Object ID (CCSDS): 19909

Country: COMMONWEALTH OF INDEPENDENT STATES (CIS)

Current information (Y/N): Y

RCS size: MEDIUM

Orbital parameters

Period: 115.75 minutes

Inclination: 74.0081 deg

SMA: 7867.574 km

Apoapsis: 1509.48 km

Periapsis: 1469.398 km

RAAN: 236.5172 deg

Eccentricy: 0.0025473

Argument of periapsis: 15.7854 deg

Mean anomaly: 158.224 deg

Mean motion: 12.4406046 rev/day

Mean motion (dot): 0.00000009 rev/day2

B* drag term: 0.000178 1/REarth

Two-line elements (TLE)

Creation date: July 9, 2025, 2:22 a.m.

Reference frame: TEME

Reference center: EARTH

Epoch: July 8, 2025, 8:28 p.m. UTC

TLE line 0: 0 COSMOS 2015

TLE line 1: 1 19909U 89025H 25189.85306330 .00000009 00000-0 17800-3 0 9993

TLE line 2: 2 19909 74.0081 236.5172 0025473 15.7854 158.2240 12.44060460648082

Live tracking on map

Real-time ground track for satellite COSMOS 2015.

In-orbit conjunctions

There are no conjunctions computed for COSMOS 2015, at the moment. Check back to stay up to date, as we update our databases every day.

Go to all conjunctions

Associated space launch

Military communications satellites

COSMOS 2015 was lifted into orbit during the mission ‘Kosmos-3M | Strela-1M 337-344’, on board a Kosmos-3M space rocket.

The launch took place on March 24, 1989, 1:38 p.m. from 132/2.

For more information about the launch, click the button.

Launch to space Kosmos-3M | Strela-1M 337-344
Kosmos-3M | Strela-1M 337-344

Agency: N/A

Status: Launch Successful

Launch date: March 24, 1989, 1:38 p.m. UTC

Rocket: Kosmos-3M

Launch pad: 132/2

Location: Plesetsk Cosmodrome, Russian Federation

...

Latest news about this satellite

There are no fresh news available about this satellite. Check back as we update our databases every day.


Newsletter sign-up

Weekly statistics, charts and insights to help you stay on top of the space industry.